Location: St. Louis
(38.6270°N, 90.1994°W)
Time: 11:30:10
(UTC-06:00)

Tiros 1 despin weight - Pass Details

Date: 09 December 2021
Orbit: 592 x 641 km, 48.2° (Epoch: 25 January)

Event Time Altitude Azimuth Distance (km) Brightness Sun altitude
Rises 17:13:02 0° 299° (WNW) 2,824 ? -6.7°
Reaches altitude 10° 17:15:22 10° 294° (WNW) 1,920 ? -7.1°
Maximum altitude 17:19:36 49° 219° (SW) 766 ? -7.9°
Drops below altitude 10° 17:23:50 10° 145° (SE) 1,920 ? -8.6°
Sets 17:26:11 0° 139° (SE) 2,824 ? -9.1°
